Location: Beccas
(43.4309°N, 0.1528°E)
Time: 08:10:03
(UTC+00:00)

Cosmos 1703 - Pass Details

Date: 26 May 2022
Orbit: 518 x 535 km, 82.5° (Epoch: 06 July)

Event Time Altitude Azimuth Distance (km) Brightness Sun altitude
Exits shadow 01:37:10 14° 123° (ESE) 1,564 5.5 -21.4°
Maximum altitude 01:39:06 19° 88° (E) 1,323 5.5 -21.3°
Drops below altitude 10° 01:41:53 10° 42° (NE) 1,795 7.0 -21.1°
Sets 01:44:31 0° 25° (NNE) 2,689 8.4 -20.9°
